Time,TemperatureF,DewpointF,PressureIn,WindDirection,WindDirectionDegrees,WindSpeedMPH,WindSpeedGustMPH,Humidity,HourlyPrecipIn,Conditions,Clouds,dailyrainin,SoftwareType,DateUTC
2013-11-25 00:02:00,23.0,-1.0,-100.00,SSW,205,11.0,18.0,35,-99.99,,,-99.99,,2013-11-25 06:02:00,
2013-11-25 00:22:00,23.0,-1.0,-100.00,South,190,9.0,17.0,35,-99.99,,,-99.99,,2013-11-25 06:22:00,
2013-11-25 00:32:00,23.0,-1.0,-100.00,South,190,9.0,17.0,35,-99.99,,,-99.99,,2013-11-25 06:32:00,
2013-11-25 00:42:00,23.0,-1.0,-100.00,South,190,9.0,17.0,35,-99.99,,,-99.99,,2013-11-25 06:42:00,
2013-11-25 00:52:00,23.0,-1.0,-100.00,South,190,9.0,17.0,35,-99.99,,,-99.99,,2013-11-25 06:52:00,
2013-11-25 01:01:00,23.0,-1.0,-100.00,South,190,9.0,17.0,35,-99.99,,,-99.99,,2013-11-25 07:01:00,
2013-11-25 01:22:00,23.0,-1.0,-100.00,SSW,195,9.0,17.0,35,-99.99,,,-99.99,,2013-11-25 07:22:00,
2013-11-25 01:32:00,23.0,-1.0,-100.00,SSW,195,9.0,17.0,35,-99.99,,,-99.99,,2013-11-25 07:32:00,
2013-11-25 01:42:00,23.0,-1.0,-100.00,SSW,195,9.0,17.0,35,-99.99,,,-99.99,,2013-11-25 07:42:00,
2013-11-25 01:52:00,23.0,-1.0,-100.00,SSW,195,9.0,17.0,35,-99.99,,,-99.99,,2013-11-25 07:52:00,
2013-11-25 02:02:00,23.0,-1.0,-100.00,SSW,195,9.0,17.0,35,-99.99,,,-99.99,,2013-11-25 08:02:00,
2013-11-25 02:22:00,24.0,-1.0,-100.00,South,180,11.0,19.0,33,-99.99,,,-99.99,,2013-11-25 08:22:00,
2013-11-25 02:32:00,24.0,-1.0,-100.00,South,180,11.0,19.0,33,-99.99,,,-99.99,,2013-11-25 08:32:00,
2013-11-25 02:42:00,24.0,-1.0,-100.00,South,180,11.0,19.0,33,-99.99,,,-99.99,,2013-11-25 08:42:00,
2013-11-25 02:52:00,24.0,-1.0,-100.00,South,180,11.0,19.0,33,-99.99,,,-99.99,,2013-11-25 08:52:00,
2013-11-25 03:02:00,25.0,0.0,-100.00,South,180,9.0,19.0,33,-99.99,,,-99.99,,2013-11-25 09:02:00,
2013-11-25 03:22:00,25.0,0.0,-100.00,South,180,9.0,19.0,33,-99.99,,,-99.99,,2013-11-25 09:22:00,
2013-11-25 03:33:00,25.0,0.0,-100.00,South,180,9.0,19.0,33,-99.99,,,-99.99,,2013-11-25 09:33:00,
2013-11-25 03:43:00,25.0,0.0,-100.00,South,180,9.0,19.0,33,-99.99,,,-99.99,,2013-11-25 09:43:00,
2013-11-25 03:53:00,25.0,0.0,-100.00,South,180,9.0,19.0,33,-99.99,,,-99.99,,2013-11-25 09:53:00,
2013-11-25 04:02:00,26.0,0.0,-100.00,SSW,210,7.0,19.0,32,-99.99,,,-99.99,,2013-11-25 10:02:00,
2013-11-25 04:23:00,26.0,0.0,-100.00,SSW,210,7.0,19.0,32,-99.99,,,-99.99,,2013-11-25 10:23:00,
2013-11-25 04:34:00,26.0,0.0,-100.00,SSW,210,7.0,19.0,32,-99.99,,,-99.99,,2013-11-25 10:34:00,
2013-11-25 04:43:00,26.0,0.0,-100.00,SSW,210,7.0,19.0,32,-99.99,,,-99.99,,2013-11-25 10:43:00,
2013-11-25 04:53:00,26.0,0.0,-100.00,SSW,210,7.0,19.0,32,-99.99,,,-99.99,,2013-11-25 10:53:00,
2013-11-25 05:22:00,25.0,4.0,-100.00,SW,230,7.0,14.0,40,-99.99,,,-99.99,,2013-11-25 11:22:00,
2013-11-25 05:33:00,25.0,4.0,-100.00,SW,230,7.0,14.0,40,-99.99,,,-99.99,,2013-11-25 11:33:00,
2013-11-25 05:43:00,25.0,4.0,-100.00,SW,230,7.0,14.0,40,-99.99,,,-99.99,,2013-11-25 11:43:00,
2013-11-25 05:52:00,25.0,4.0,-100.00,SW,230,7.0,14.0,40,-99.99,,,-99.99,,2013-11-25 11:52:00,
2013-11-25 06:02:00,25.0,4.0,-100.00,SW,230,7.0,14.0,40,-99.99,,,-99.99,,2013-11-25 12:02:00,
2013-11-25 06:22:00,24.0,15.0,-100.00,SSW,200,7.0,15.0,67,-99.99,,,-99.99,,2013-11-25 12:22:00,
2013-11-25 06:32:00,24.0,15.0,-100.00,SSW,200,7.0,15.0,67,-99.99,,,-99.99,,2013-11-25 12:32:00,
2013-11-25 06:42:00,24.0,15.0,-100.00,SSW,200,7.0,15.0,67,-99.99,,,-99.99,,2013-11-25 12:42:00,
2013-11-25 06:52:00,24.0,15.0,-100.00,SSW,200,7.0,15.0,67,-99.99,,,-99.99,,2013-11-25 12:52:00,
2013-11-25 07:02:00,24.0,15.0,-100.00,SSW,200,7.0,15.0,67,-99.99,,,-99.99,,2013-11-25 13:02:00,
2013-11-25 07:22:00,25.0,16.0,-100.00,SSW,205,7.0,16.0,71,-99.99,,,-99.99,,2013-11-25 13:22:00,
2013-11-25 07:32:00,25.0,16.0,-100.00,SSW,205,7.0,16.0,71,-99.99,,,-99.99,,2013-11-25 13:32:00,
2013-11-25 07:42:00,25.0,16.0,-100.00,SSW,205,7.0,16.0,71,-99.99,,,-99.99,,2013-11-25 13:42:00,
2013-11-25 07:52:00,25.0,16.0,-100.00,SSW,205,7.0,16.0,71,-99.99,,,-99.99,,2013-11-25 13:52:00,
2013-11-25 08:01:00,25.0,16.0,-100.00,SSW,205,7.0,16.0,71,-99.99,,,-99.99,,2013-11-25 14:01:00,
2013-11-25 09:03:00,26.0,18.0,-100.00,SW,235,6.0,13.0,73,-99.99,,,-99.99,,2013-11-25 15:03:00,
2013-11-25 09:22:00,26.0,18.0,-100.00,SW,235,6.0,13.0,73,-99.99,,,-99.99,,2013-11-25 15:22:00,
2013-11-25 09:33:00,26.0,18.0,-100.00,SW,235,6.0,13.0,73,-99.99,,,-99.99,,2013-11-25 15:33:00,
2013-11-25 09:45:00,26.0,18.0,-100.00,SW,235,6.0,13.0,73,-99.99,,,-99.99,,2013-11-25 15:45:00,
2013-11-25 09:54:00,26.0,18.0,-100.00,SW,235,6.0,13.0,73,-99.99,,,-99.99,,2013-11-25 15:54:00,
2013-11-25 10:03:00,27.0,19.0,-100.00,SW,230,3.0,14.0,73,-99.99,,,-99.99,,2013-11-25 16:03:00,
2013-11-25 10:23:00,27.0,19.0,-100.00,SW,230,3.0,14.0,73,-99.99,,,-99.99,,2013-11-25 16:23:00,
2013-11-25 10:33:00,27.0,19.0,-100.00,SW,230,3.0,14.0,73,-99.99,,,-99.99,,2013-11-25 16:33:00,
2013-11-25 10:43:00,27.0,19.0,-100.00,SW,230,3.0,14.0,73,-99.99,,,-99.99,,2013-11-25 16:43:00,
2013-11-25 10:52:00,27.0,19.0,-100.00,SW,230,3.0,14.0,73,-99.99,,,-99.99,,2013-11-25 16:52:00,
2013-11-25 11:22:00,28.0,20.0,-100.00,SW,235,7.0,16.0,71,-99.99,,,-99.99,,2013-11-25 17:22:00,
2013-11-25 11:33:00,28.0,20.0,-100.00,SW,235,7.0,16.0,71,-99.99,,,-99.99,,2013-11-25 17:33:00,
2013-11-25 11:43:00,28.0,20.0,-100.00,SW,235,7.0,16.0,71,-99.99,,,-99.99,,2013-11-25 17:43:00,
2013-11-25 11:52:00,28.0,20.0,-100.00,SW,235,7.0,16.0,71,-99.99,,,-99.99,,2013-11-25 17:52:00,
2013-11-25 12:02:00,28.0,20.0,-100.00,SW,235,7.0,16.0,71,-99.99,,,-99.99,,2013-11-25 18:02:00,
2013-11-25 12:22:00,29.0,20.0,-100.00,SW,235,6.0,14.0,68,-99.99,,,-99.99,,2013-11-25 18:22:00,
2013-11-25 12:33:00,29.0,20.0,-100.00,SW,235,6.0,14.0,68,-99.99,,,-99.99,,2013-11-25 18:33:00,
2013-11-25 12:42:00,29.0,20.0,-100.00,SW,235,6.0,14.0,68,-99.99,,,-99.99,,2013-11-25 18:42:00,
2013-11-25 12:52:00,29.0,20.0,-100.00,SW,235,6.0,14.0,68,-99.99,,,-99.99,,2013-11-25 18:52:00,
2013-11-25 13:02:00,29.0,20.0,-100.00,SW,235,6.0,14.0,68,-99.99,,,-99.99,,2013-11-25 19:02:00,
2013-11-25 13:22:00,31.0,20.0,-100.00,West,270,6.0,13.0,64,-99.99,,,-99.99,,2013-11-25 19:22:00,
2013-11-25 13:32:00,31.0,20.0,-100.00,West,270,6.0,13.0,64,-99.99,,,-99.99,,2013-11-25 19:32:00,
2013-11-25 13:42:00,31.0,20.0,-100.00,West,270,6.0,13.0,64,-99.99,,,-99.99,,2013-11-25 19:42:00,
2013-11-25 13:52:00,31.0,20.0,-100.00,West,270,6.0,13.0,64,-99.99,,,-99.99,,2013-11-25 19:52:00,
2013-11-25 14:01:00,31.0,20.0,-100.00,West,270,6.0,13.0,64,-99.99,,,-99.99,,2013-11-25 20:01:00,
2013-11-25 14:22:00,32.0,21.0,-100.00,SW,215,7.0,15.0,63,-99.99,,,-99.99,,2013-11-25 20:22:00,
2013-11-25 14:32:00,32.0,21.0,-100.00,SW,215,7.0,15.0,63,-99.99,,,-99.99,,2013-11-25 20:32:00,
2013-11-25 14:42:00,32.0,21.0,-100.00,SW,215,7.0,15.0,63,-99.99,,,-99.99,,2013-11-25 20:42:00,
2013-11-25 14:52:00,32.0,21.0,-100.00,SW,215,7.0,15.0,63,-99.99,,,-99.99,,2013-11-25 20:52:00,
2013-11-25 15:01:00,32.0,21.0,-100.00,SW,215,7.0,15.0,63,-99.99,,,-99.99,,2013-11-25 21:01:00,
2013-11-25 15:03:00,33.0,22.0,-100.00,WSW,255,5.0,12.0,62,-99.99,,,-99.99,,2013-11-25 21:03:00,
2013-11-25 15:22:00,33.0,22.0,-100.00,WSW,255,5.0,12.0,62,-99.99,,,-99.99,,2013-11-25 21:22:00,
2013-11-25 15:33:00,33.0,22.0,-100.00,WSW,255,5.0,12.0,62,-99.99,,,-99.99,,2013-11-25 21:33:00,
2013-11-25 15:44:00,33.0,22.0,-100.00,WSW,255,5.0,12.0,62,-99.99,,,-99.99,,2013-11-25 21:44:00,
2013-11-25 15:54:00,33.0,22.0,-100.00,WSW,255,5.0,12.0,62,-99.99,,,-99.99,,2013-11-25 21:54:00,
2013-11-25 16:23:00,32.0,21.0,-100.00,SSW,205,4.0,8.0,64,-99.99,,,-99.99,,2013-11-25 22:23:00,
2013-11-25 16:33:00,32.0,21.0,-100.00,SSW,205,4.0,8.0,64,-99.99,,,-99.99,,2013-11-25 22:33:00,
2013-11-25 16:43:00,32.0,21.0,-100.00,SSW,205,4.0,8.0,64,-99.99,,,-99.99,,2013-11-25 22:43:00,
2013-11-25 16:53:00,32.0,21.0,-100.00,SSW,205,4.0,8.0,64,-99.99,,,-99.99,,2013-11-25 22:53:00,
2013-11-25 17:02:00,32.0,21.0,-100.00,SSW,205,4.0,8.0,64,-99.99,,,-99.99,,2013-11-25 23:02:00,
2013-11-25 17:22:00,32.0,21.0,-100.00,SSW,205,4.0,9.0,66,-99.99,,,-99.99,,2013-11-25 23:22:00,
2013-11-25 17:33:00,32.0,21.0,-100.00,SSW,205,4.0,9.0,66,-99.99,,,-99.99,,2013-11-25 23:33:00,
2013-11-25 17:42:00,32.0,21.0,-100.00,SSW,205,4.0,9.0,66,-99.99,,,-99.99,,2013-11-25 23:42:00,
2013-11-25 17:52:00,32.0,21.0,-100.00,SSW,205,4.0,9.0,66,-99.99,,,-99.99,,2013-11-25 23:52:00,
2013-11-25 18:01:00,32.0,21.0,-100.00,SSW,205,4.0,9.0,66,-99.99,,,-99.99,,2013-11-26 00:01:00,
2013-11-25 18:22:00,32.0,22.0,-100.00,SW,215,4.0,9.0,67,-99.99,,,-99.99,,2013-11-26 00:22:00,
2013-11-25 18:32:00,32.0,22.0,-100.00,SW,215,4.0,9.0,67,-99.99,,,-99.99,,2013-11-26 00:32:00,
2013-11-25 18:42:00,32.0,22.0,-100.00,SW,215,4.0,9.0,67,-99.99,,,-99.99,,2013-11-26 00:42:00,
2013-11-25 18:52:00,32.0,22.0,-100.00,SW,215,4.0,9.0,67,-99.99,,,-99.99,,2013-11-26 00:52:00,
2013-11-25 19:01:00,32.0,22.0,-100.00,SW,215,4.0,9.0,67,-99.99,,,-99.99,,2013-11-26 01:01:00,
2013-11-25 19:22:00,32.0,22.0,-100.00,SW,235,4.0,9.0,68,-99.99,,,-99.99,,2013-11-26 01:22:00,
2013-11-25 19:32:00,32.0,22.0,-100.00,SW,235,4.0,9.0,68,-99.99,,,-99.99,,2013-11-26 01:32:00,
2013-11-25 19:42:00,32.0,22.0,-100.00,SW,235,4.0,9.0,68,-99.99,,,-99.99,,2013-11-26 01:42:00,
2013-11-25 19:52:00,32.0,22.0,-100.00,SW,235,4.0,9.0,68,-99.99,,,-99.99,,2013-11-26 01:52:00,
2013-11-25 20:02:00,32.0,22.0,-100.00,SW,235,4.0,9.0,68,-99.99,,,-99.99,,2013-11-26 02:02:00,
2013-11-25 20:22:00,32.0,23.0,-100.00,WSW,250,2.0,6.0,68,-99.99,,,-99.99,,2013-11-26 02:22:00,
2013-11-25 20:32:00,32.0,23.0,-100.00,WSW,250,2.0,6.0,68,-99.99,,,-99.99,,2013-11-26 02:32:00,
2013-11-25 20:42:00,32.0,23.0,-100.00,WSW,250,2.0,6.0,68,-99.99,,,-99.99,,2013-11-26 02:42:00,
2013-11-25 20:52:00,32.0,23.0,-100.00,WSW,250,2.0,6.0,68,-99.99,,,-99.99,,2013-11-26 02:52:00,
2013-11-25 21:01:00,32.0,23.0,-100.00,WSW,250,2.0,6.0,68,-99.99,,,-99.99,,2013-11-26 03:01:00,
2013-11-25 21:22:00,32.0,23.0,-100.00,SSW,205,3.0,6.0,69,-99.99,,,-99.99,,2013-11-26 03:22:00,
2013-11-25 21:33:00,32.0,23.0,-100.00,SSW,205,3.0,6.0,69,-99.99,,,-99.99,,2013-11-26 03:33:00,
2013-11-25 21:44:00,32.0,23.0,-100.00,SSW,205,3.0,6.0,69,-99.99,,,-99.99,,2013-11-26 03:44:00,
2013-11-25 21:54:00,32.0,23.0,-100.00,SSW,205,3.0,6.0,69,-99.99,,,-99.99,,2013-11-26 03:54:00,
2013-11-25 22:03:00,32.0,23.0,-100.00,SSW,205,3.0,6.0,69,-99.99,,,-99.99,,2013-11-26 04:03:00,
2013-11-25 22:23:00,32.0,23.0,-100.00,SW,215,3.0,6.0,68,-99.99,,,-99.99,,2013-11-26 04:23:00,
2013-11-25 22:34:00,32.0,23.0,-100.00,SW,215,3.0,6.0,68,-99.99,,,-99.99,,2013-11-26 04:34:00,
2013-11-25 22:44:00,32.0,23.0,-100.00,SW,215,3.0,6.0,68,-99.99,,,-99.99,,2013-11-26 04:44:00,
2013-11-25 22:53:00,32.0,23.0,-100.00,SW,215,3.0,6.0,68,-99.99,,,-99.99,,2013-11-26 04:53:00,
2013-11-25 23:23:00,33.0,22.0,-100.00,SSW,195,3.0,7.0,64,-99.99,,,-99.99,,2013-11-26 05:23:00,
2013-11-25 23:34:00,33.0,22.0,-100.00,SSW,195,3.0,7.0,64,-99.99,,,-99.99,,2013-11-26 05:34:00,
2013-11-25 23:43:00,33.0,22.0,-100.00,SSW,195,3.0,7.0,64,-99.99,,,-99.99,,2013-11-26 05:43:00,
2013-11-25 23:53:00,33.0,22.0,-100.00,SSW,195,3.0,7.0,64,-99.99,,,-99.99,,2013-11-26 05:53:00,